Skip Page Navigation
NASA JPL Caltech
NASA Logo - Jet Propulsion Laboratory + View the NASA Portal
+ Center for Near-Earth Object Studies
JPL Home Earth Solar System Stars & Galaxies Technology
JPL Solar System Dynamics
BODIES ORBITS EPHEMERIDES TOOLS PHYSICAL DATA DISCOVERY FAQ SITE MAP
JPL Small-Body Database Browser
Search: [ help ]  
193598 (2001 BF65)
Classification: Main-belt Asteroid          SPK-ID: 2193598
Ephemeris | Orbit Diagram | Orbital Elements | Mission Design | Physical Parameters | Discovery Circumstances | Close-Approach Data ]

[ show orbit diagram ]
Orbital Elements at Epoch 2459000.5 (2020-May-31.0) TDB
Reference: JPL 13 (heliocentric ecliptic J2000)
 Element Value Uncertainty (1-sigma)   Units 
e .3008250648500873 4.9115e-08  
a 2.596062338378679 2.2884e-08 au
q 1.815101717081044 1.3324e-07 au
i 6.107156533318725 7.1197e-06 deg
node 210.9212508489462 4.1731e-05 deg
peri 224.1881926417767 4.4868e-05 deg
M 257.604470508891 2.2961e-05 deg
tp 2459435.059849074693
(2021-Aug-08.55984907)
0.00010221 TDB
period 1527.816169752542
4.18
2.0201e-05
5.531e-08
d
yr
n .2356304424100371 3.1156e-09 deg/d
Q 3.377022959676314 2.9768e-08 au
  Orbit Determination Parameters
   # obs. used (total)      409  
   data-arc span      10149 days (27.79 yr)  
   first obs. used      1991-09-15  
   last obs. used      2019-06-29  
   planetary ephem.      DE431  
   SB-pert. ephem.      SB431-N16  
   condition code      0  
   norm. resid. RMS      .54307  
   source      ORB  
   producer      Otto Matic  
   solution date      2020-Feb-24 22:05:45  

Additional Information
 Earth MOID = .835719 au 
 Jupiter MOID = 1.94556 au 
 T_jup = 3.344 
[ show covariance matrix ]

Ephemeris | Orbit Diagram | Orbital Elements | Mission Design | Physical Parameters | Discovery Circumstances | Close-Approach Data ]

Physical Parameter Table
Parameter Symbol Value Units Sigma Reference Notes
absolute magnitude H 16.2   n/a MPO449956  

193598 (2001 BF65)          Discovered 2001-Jan-26 by LINEAR at Socorro
Reference: 20081113/Numbers.arcLast Updated: 2008-11-17

[ show close-approach data ]
Alternate Designations
 2001 BF65 = 1993 FX66 
Ephemeris | Orbit Diagram | Orbital Elements | Mission Design | Physical Parameters | Discovery Circumstances | Close-Approach Data ]
ABOUT SSD CREDITS/AWARDS PRIVACY/COPYRIGHT GLOSSARY LINKS
FirstGov 2020-Jul-15 05:37 UT
(server date/time)  
NASA Home Page
Site Manager:   Ryan S. Park
Webmaster  Alan B. Chamberlin